TimeCDT,TemperatureF,Dew PointF,Humidity,Sea Level PressureIn,VisibilityMPH,Wind Direction,Wind SpeedMPH,Gust SpeedMPH,PrecipitationIn,Events,Conditions,WindDirDegrees,DateUTC
12:53 AM,63.0,57.9,84,29.99,10.0,North,3.5,-,N/A,,Mostly Cloudy,360,2013-06-03 05:53:00
1:53 AM,61.0,57.0,87,29.98,10.0,NNW,4.6,-,N/A,,Clear,340,2013-06-03 06:53:00
2:53 AM,61.0,55.9,83,29.98,10.0,North,5.8,-,N/A,,Clear,360,2013-06-03 07:53:00
3:53 AM,60.1,55.9,86,29.99,10.0,North,5.8,-,N/A,,Clear,350,2013-06-03 08:53:00
4:53 AM,60.1,55.9,86,30.01,10.0,North,3.5,-,N/A,,Overcast,350,2013-06-03 09:53:00
5:53 AM,60.1,55.9,86,30.02,10.0,North,5.8,-,N/A,,Scattered Clouds,10,2013-06-03 10:53:00
6:53 AM,61.0,55.9,83,30.05,10.0,North,5.8,-,N/A,,Mostly Cloudy,350,2013-06-03 11:53:00
7:53 AM,64.0,57.0,78,30.07,10.0,NNE,4.6,-,N/A,,Mostly Cloudy,30,2013-06-03 12:53:00
8:53 AM,66.9,57.0,70,30.06,10.0,NNE,8.1,-,N/A,,Partly Cloudy,30,2013-06-03 13:53:00
9:53 AM,68.0,57.0,68,30.04,10.0,NE,8.1,-,N/A,,Scattered Clouds,40,2013-06-03 14:53:00
10:53 AM,71.1,55.9,59,30.04,10.0,NE,8.1,-,N/A,,Clear,40,2013-06-03 15:53:00
11:53 AM,72.0,55.9,57,30.04,10.0,Variable,4.6,-,N/A,,Overcast,0,2013-06-03 16:53:00
12:53 PM,72.0,55.9,57,30.03,10.0,ENE,3.5,-,N/A,,Mostly Cloudy,70,2013-06-03 17:53:00
1:53 PM,73.9,57.0,55,30.00,10.0,East,8.1,-,N/A,,Partly Cloudy,80,2013-06-03 18:53:00
2:53 PM,75.9,55.0,48,29.99,10.0,Calm,Calm,-,N/A,,Mostly Cloudy,0,2013-06-03 19:53:00
3:53 PM,75.9,55.9,50,29.98,10.0,NNW,4.6,-,N/A,,Clear,340,2013-06-03 20:53:00
4:53 PM,75.9,54.0,46,29.97,10.0,Calm,Calm,-,N/A,,Clear,0,2013-06-03 21:53:00
5:53 PM,75.9,55.0,48,29.96,10.0,NE,4.6,-,N/A,,Clear,50,2013-06-03 22:53:00
6:53 PM,75.0,54.0,48,29.96,10.0,Calm,Calm,-,N/A,,Clear,0,2013-06-03 23:53:00
7:53 PM,73.0,57.0,57,29.96,10.0,East,3.5,-,N/A,,Clear,80,2013-06-04 00:53:00
8:53 PM,69.1,59.0,70,29.97,10.0,ENE,3.5,-,N/A,,Clear,70,2013-06-04 01:53:00
9:53 PM,66.9,60.1,79,29.99,10.0,Calm,Calm,-,N/A,,Clear,0,2013-06-04 02:53:00
10:53 PM,64.0,60.1,87,30.00,10.0,Calm,Calm,-,N/A,,Clear,0,2013-06-04 03:53:00
11:53 PM,64.0,59.0,84,30.01,10.0,NNE,3.5,-,N/A,,Clear,30,2013-06-04 04:53:00